Weather History for KANJ - February, 2014

Change the Weather History Date:

Thursday, February 13, 2014

  Actual Average Record
Temperature  
Mean Temperature 16 °F 17 °F  
Max Temperature 22 °F 25 °F 42 °F (1890)
Min Temperature 9 °F 9 °F -27 °F (1970)
Degree Days  
Heating Degree Days 49 48  
Month to date heating degree days 739 635  
Since 1 July heating degree days 5968 5435  
Moisture  
Dew Point 15 °F    
Average Humidity 84    
Maximum Humidity 92    
Minimum Humidity 76    
Precipitation  
Precipitation 0.04 in 0.04 in 0.44 in (1985)
Month to date precipitation 0.10 0.64  
Year to date precipitation 2.69 2.83  
Snow  
Snow 0.80 in 0.70 in 5.10 in (1985)
Month to date snowfall 3.1 9.9  
Since 1 July snowfall 93.3 91.5  
Snow Depth 23.00 in    
Sea Level Pressure  
Sea Level Pressure 29.77 in    
Wind  
Wind Speed 8 mph (ESE)    
Max Wind Speed 17 mph    
Max Gust Speed 24 mph    
Visibility 4 miles    
Events Snow    
T = Trace of Precipitation, MM = Missing Value Source: NWS Daily Summary

Daily Weather History Graph

Daily Weather History Graph

Search for Another Location

Airport or City:

Trip Planner

Search our weather history database for the weather conditions in past years. The results will help you decide how hot, cold, wet, or windy it might be!

Date:

Astronomy

Feb. 13, 2014 Rise Set
Actual Time 7:44 AM EST 5:59 PM EST
Civil Twilight 7:12 AM EST 6:31 PM EST
Nautical Twilight 6:37 AM EST 7:06 PM EST
Astronomical Twilight 6:02 AM EST 7:41 PM EST
Moon 5:07 PM EST (2/13) 6:37 AM EST (2/13)
Length of Visible Light 11h 18m
Length of Day
10h 15m
Waxing Gibbous, 98% of the Moon is Illuminated
Feb 13
Waxing Gibbous
Feb 14
Full
Feb 22
Last Quarter
Mar 1
New
Mar 8
First Quarter

Hourly Weather History & Observations

Time (EST) Temp. Windchill Dew Point Humidity Pressure Visibility Wind Dir Wind Speed Gust Speed Precip Events Conditions
12:55 AM 15.1 °F - 10.0 °F 80% 30.04 in 7.0 mi Calm Calm - 0.00 in   Overcast
1:55 AM 12.9 °F 6.9 °F 10.0 °F 88% 30.02 in 7.0 mi SE 3.5 mph - N/A   Overcast
2:36 AM 10.9 °F - 8.1 °F 88% 29.97 in 6.0 mi Calm Calm - N/A   Partly Cloudy
2:55 AM 12.0 °F 5.9 °F 8.1 °F 84% 30.01 in 6.0 mi East 3.5 mph - N/A   Clear
3:17 AM 12.0 °F - 8.1 °F 84% 29.97 in 5.0 mi Calm Calm - N/A   Mostly Cloudy
3:55 AM 10.0 °F - 5.0 °F 80% 30.00 in 5.0 mi Calm Calm - N/A   Haze
4:55 AM 12.0 °F 4.1 °F 9.0 °F 88% 30.01 in 5.0 mi East 4.6 mph - N/A   Overcast
5:55 AM 12.0 °F 4.1 °F 9.0 °F 88% 30.01 in 5.0 mi ENE 4.6 mph - 0.00 in   Overcast
6:55 AM 12.9 °F 3.8 °F 10.0 °F 88% 29.98 in 4.0 mi East 5.8 mph - 0.00 in Snow Light Snow
7:55 AM 15.1 °F 5.2 °F 12.0 °F 88% 29.97 in 6.0 mi East 6.9 mph - 0.00 in Snow Light Snow
8:19 AM 15.1 °F 3.3 °F 12.0 °F 88% 29.93 in 2.5 mi East 9.2 mph - 0.00 in Snow Light Snow
8:34 AM 16.0 °F 6.3 °F 12.9 °F 88% 29.93 in 1.5 mi East 6.9 mph - 0.00 in Snow Light Snow
8:55 AM 17.1 °F 7.6 °F 14.0 °F 88% 29.95 in 1.0 mi East 6.9 mph - 0.00 in Snow Light Snow
9:44 AM 18.0 °F 8.7 °F 15.1 °F 88% 29.89 in 2.0 mi ESE 6.9 mph - 0.01 in Snow Light Snow
9:55 AM 19.0 °F 9.0 °F 15.1 °F 85% 29.92 in 1.8 mi ESE 8.1 mph - 0.01 in Snow Light Snow
10:22 AM 19.0 °F 8.2 °F 15.1 °F 85% 29.86 in 3.0 mi ESE 9.2 mph - 0.00 in Snow Light Snow
10:55 AM 19.9 °F 9.3 °F 16.0 °F 85% 29.89 in 4.0 mi ESE 9.2 mph - 0.01 in   Overcast
11:39 AM 21.0 °F 10.6 °F 16.0 °F 81% 29.83 in 8.0 mi ESE 9.2 mph - N/A   Overcast
11:55 AM 21.0 °F 9.3 °F 16.0 °F 81% 29.85 in 8.0 mi ESE 11.5 mph 19.6 mph N/A   Overcast
12:55 PM 21.0 °F 9.3 °F 16.0 °F 81% 29.81 in 7.0 mi ESE 11.5 mph 23.0 mph N/A   Overcast
1:55 PM 21.0 °F 8.6 °F 15.1 °F 78% 29.78 in 6.0 mi ESE 12.7 mph 21.9 mph N/A   Haze
2:55 PM 21.0 °F 9.3 °F 17.1 °F 85% 29.75 in 3.0 mi ESE 11.5 mph - 0.00 in Snow Light Snow
3:20 PM 21.0 °F 9.3 °F 17.1 °F 85% 29.70 in 2.5 mi ESE 11.5 mph 23.0 mph 0.00 in Snow Light Snow
3:34 PM 21.0 °F 8.6 °F 17.1 °F 85% 29.69 in 1.5 mi ESE 12.7 mph 19.6 mph 0.00 in Snow Light Snow
3:55 PM 21.0 °F 9.3 °F 18.0 °F 88% 29.72 in 1.5 mi ESE 11.5 mph 21.9 mph 0.01 in Snow Light Snow
4:07 PM 21.0 °F 9.3 °F 18.0 °F 88% 29.67 in 1.8 mi ESE 11.5 mph 20.7 mph 0.00 in Snow Light Snow
4:17 PM 21.9 °F 11.0 °F 18.0 °F 85% 29.66 in 2.5 mi ESE 10.4 mph 21.9 mph 0.00 in Snow Light Snow
4:26 PM 21.9 °F 10.4 °F 17.1 °F 82% 29.66 in 3.0 mi ESE 11.5 mph 19.6 mph 0.00 in Snow Light Snow
4:50 PM 21.2 °F 11.7 °F 17.6 °F 86% 29.66 in 4.0 mi ESE 8.1 mph - 0.00 in Snow Light Snow
4:55 PM 21.9 °F 10.4 °F 17.1 °F 82% 29.70 in 4.0 mi ESE 11.5 mph 17.3 mph 0.00 in Snow Light Snow
5:08 PM 21.9 °F 11.7 °F 18.0 °F 85% 29.66 in 2.0 mi ESE 9.2 mph 18.4 mph 0.00 in Snow Light Snow
5:20 PM 21.9 °F 9.2 °F 17.1 °F 82% 29.66 in 1.8 mi ESE 13.8 mph 20.7 mph 0.00 in Snow Light Snow
5:33 PM 21.0 °F 9.9 °F 17.1 °F 85% 29.64 in 2.0 mi East 10.4 mph 20.7 mph 0.00 in Snow Light Snow
5:47 PM 21.0 °F 8.1 °F 16.0 °F 81% 29.64 in 2.5 mi ESE 13.8 mph 21.9 mph 0.01 in Snow Light Snow
5:55 PM 21.0 °F 9.3 °F 16.0 °F 81% 29.67 in 1.8 mi ESE 11.5 mph 21.9 mph 0.01 in Snow Light Snow
6:07 PM 21.0 °F 8.6 °F 15.1 °F 78% 29.63 in 2.5 mi ESE 12.7 mph 23.0 mph 0.00 in Snow Light Snow
6:30 PM 19.9 °F 7.9 °F 15.1 °F 81% 29.63 in 3.0 mi ESE 11.5 mph 23.0 mph 0.00 in Snow Light Snow
6:55 PM 21.0 °F 8.6 °F 16.0 °F 81% 29.65 in 3.0 mi ESE 12.7 mph 21.9 mph 0.00 in Snow Light Snow
7:09 PM 21.0 °F 9.3 °F 16.0 °F 81% 29.61 in 4.0 mi ESE 11.5 mph 21.9 mph 0.00 in Snow Light Snow
7:18 PM 19.9 °F 7.9 °F 16.0 °F 85% 29.61 in 4.0 mi ESE 11.5 mph 20.7 mph 0.00 in Snow Light Snow
7:26 PM 19.9 °F 10.1 °F 16.0 °F 85% 29.62 in 4.0 mi ESE 8.1 mph - 0.00 in Snow Light Snow
7:55 PM 19.9 °F 7.9 °F 16.0 °F 85% 29.65 in 8.0 mi ESE 11.5 mph - 0.00 in   Overcast
8:30 PM 19.9 °F 7.9 °F 16.0 °F 85% 29.59 in 4.0 mi ESE 11.5 mph 19.6 mph 0.00 in Snow Light Snow
8:55 PM 19.9 °F 8.6 °F 16.0 °F 85% 29.63 in 7.0 mi ESE 10.4 mph - 0.00 in   Overcast
9:55 PM 19.9 °F 9.3 °F 16.0 °F 85% 29.61 in 7.0 mi East 9.2 mph - 0.00 in Snow Light Snow
10:15 PM 19.9 °F 11.1 °F 16.0 °F 85% 29.58 in 2.0 mi East 6.9 mph - 0.00 in Snow Light Snow
10:30 PM 19.9 °F 10.1 °F 16.0 °F 85% 29.56 in 4.0 mi East 8.1 mph - 0.00 in Snow Light Snow
10:55 PM 19.9 °F 10.1 °F 16.0 °F 85% 29.58 in 9.0 mi East 8.1 mph - 0.00 in   Overcast
11:55 PM 19.9 °F 9.3 °F 16.0 °F 85% 29.56 in 5.0 mi East 9.2 mph - 0.00 in Snow Light Snow